Regional Weather Roundup
Issued by NWS

Home | Current Version | Previous Version | Graphics & Text | Print | Product List | Glossary On
Versions: 1 2 3 4 5 6 7 8 9 10 11 12 13 14 15 16 17 18 19 20 21 22 23 24 25 26 27 28 29 30 31 32 33 34 35 36 37 38 39 40 41 42 43 44 45 46 47 48 49 50
000
ASUS45 KBOI 201410
RWRID
WEATHER ROUNDUP FOR IDAHO
NATIONAL WEATHER SERVICE BOISE ID
700 AM MST THU NOV 20 2014

NOTE: "FAIR" INDICATES FEW OR NO CLOUDS BELOW 12000 FEET
WITH NO SIGNIFICANT WEATHER AND/OR OBSTRUCTIONS TO VISIBILITY

IDZ012-014-201500-
SOUTHWEST IDAHO


CITY           SKY/WX    TMP DP  RH WIND       PRES   REMARKS
BOISE          CLOUDY    21  17  84 W3        30.15R FOG
CALDWELL         N/A    N/A N/A N/A MISG        N/A
$$

IDZ016-017-201500-
SOUTHCENTRAL IDAHO


CITY           SKY/WX    TMP DP  RH WIND       PRES   REMARKS
BURLEY         CLOUDY    26  22  84 NE3       30.09R
JEROME         CLOUDY    30  23  75 CALM      30.10R
TWIN FALLS     CLOUDY    36  27  69 S12       30.08F WCI  28
$$

IDZ019>023-201500-
SOUTHEAST IDAHO


CITY           SKY/WX    TMP DP  RH WIND       PRES   REMARKS
IDAHO FALLS    MOCLDY    19  17  92 CALM      30.10R
POCATELLO      CLEAR     21  19  92 CALM      30.10S
REXBURG        MOCLDY    19  15  84 CALM      30.09R
$$

IDZ006-010-011-018-031-032-201500-
CENTRAL IDAHO MOUNTAINS


CITY           SKY/WX    TMP DP  RH WIND       PRES   REMARKS
MCCALL         MIX PCPN  27  23  85 CALM      30.04R FOG
HAILEY         CLOUDY    27  21  80 W7        30.08F WCI  19
STANLEY          N/A     15  11  83 CALM      30.06S
SALMON         MOCLDY    14  14 100 SE5       30.11R WCI   6
CHALLIS        CLOUDY    17  15  92 CALM      30.07R
$$

IDZ002-004-006-007-026-201500-
NORTHERN IDAHO


CITY           SKY/WX    TMP DP  RH WIND       PRES   REMARKS
LEWISTON       CLOUDY    32  25  75 CALM      30.09R
LOWELL           N/A     30  26  85 CALM      30.11R
COEUR D`ALENE  CLOUDY    28  19  69 NE8       30.03R WCI  20
MULLAN PASS    CLOUDY    32  13  45 SW9       29.94S WCI  24
$$



USA.gov is the U.S. government's official web portal to all federal, state and local government web resources and services.